Terminal Aerodrome Forecast
Issued by NWS

Home | Current Version | Previous Version | Text Only | Print | Product List | Glossary On
Versions: 1 2 3 4 5 6 7 8 9 10 11 12 13 14 15 16 17 18 19 20 21 22
000
FTUS46 KOTX 132342
TAFMWH
TAF
KMWH 132342Z 1400/1424 19006KT P6SM SCT150 BKN200
     FM140300 31004KT P6SM SCT150 OVC200
     FM140800 33005KT P6SM VCTS SCT100CB OVC150
     FM141700 36007G17KT P6SM SCT090 BKN150=

USA.gov is the U.S. government's official web portal to all federal, state and local government web resources and services.